Time,TemperatureF,DewpointF,PressureIn,WindDirection,WindDirectionDegrees,WindSpeedMPH,WindSpeedGustMPH,Humidity,HourlyPrecipIn,Conditions,Clouds,dailyrainin,SoftwareType,DateUTC
2013-03-24 00:03:00,32.0,24.0,29.65,WNW,299,9.0,25.0,72,0.00,,,0.00,,2013-03-24 04:03:00,
2013-03-24 00:13:00,32.0,24.0,29.65,WNW,299,9.0,25.0,72,0.00,,,0.00,,2013-03-24 04:13:00,
2013-03-24 00:23:00,31.0,23.0,29.65,North,10,9.0,19.0,72,0.00,,,0.00,,2013-03-24 04:23:00,
2013-03-24 00:33:00,31.0,23.0,29.65,WNW,285,7.0,17.0,72,0.00,,,0.00,,2013-03-24 04:33:00,
2013-03-24 00:43:00,31.0,23.0,29.65,WNW,285,7.0,17.0,72,0.00,,,0.00,,2013-03-24 04:43:00,
2013-03-24 00:52:00,31.0,23.0,29.65,WNW,289,9.0,19.0,71,0.00,,,0.00,,2013-03-24 04:52:00,
2013-03-24 01:03:00,31.0,23.0,29.65,NW,317,8.0,19.0,71,0.00,,,0.00,,2013-03-24 05:03:00,
2013-03-24 01:13:00,31.0,23.0,29.65,NW,317,8.0,19.0,71,0.00,,,0.00,,2013-03-24 05:13:00,
2013-03-24 01:23:00,31.0,23.0,29.65,West,277,8.0,17.0,71,0.00,,,0.00,,2013-03-24 05:23:00,
2013-03-24 01:32:00,32.0,24.0,29.66,NW,308,7.0,21.0,71,0.00,,,0.00,,2013-03-24 05:32:00,
2013-03-24 01:43:00,32.0,24.0,29.66,NW,308,7.0,21.0,71,0.00,,,0.00,,2013-03-24 05:43:00,
2013-03-24 01:52:00,32.0,23.0,29.67,NNW,335,9.0,23.0,70,0.00,,,0.00,,2013-03-24 05:52:00,
2013-03-24 02:02:00,32.0,24.0,29.67,WSW,245,7.0,20.0,71,0.00,,,0.00,,2013-03-24 06:02:00,
2013-03-24 02:12:00,32.0,24.0,29.67,WSW,245,7.0,20.0,71,0.00,,,0.00,,2013-03-24 06:12:00,
2013-03-24 02:22:00,31.0,23.0,29.68,WNW,296,9.0,19.0,72,0.00,,,0.00,,2013-03-24 06:22:00,
2013-03-24 02:32:00,31.0,23.0,29.68,WNW,302,7.0,17.0,72,0.00,,,0.00,,2013-03-24 06:32:00,
2013-03-24 02:42:00,31.0,23.0,29.68,WNW,302,7.0,17.0,72,0.00,,,0.00,,2013-03-24 06:42:00,
2013-03-24 02:52:00,31.0,23.0,29.68,NW,324,8.0,17.0,72,0.00,,,0.00,,2013-03-24 06:52:00,
2013-03-24 03:02:00,31.0,23.0,29.69,WNW,298,6.0,20.0,72,0.00,,,0.00,,2013-03-24 07:02:00,
2013-03-24 03:12:00,31.0,23.0,29.69,WNW,298,6.0,20.0,72,0.00,,,0.00,,2013-03-24 07:12:00,
2013-03-24 03:22:00,31.0,23.0,29.68,West,274,7.0,21.0,72,0.00,,,0.00,,2013-03-24 07:22:00,
2013-03-24 03:32:00,31.0,23.0,29.69,NW,304,6.0,18.0,73,0.00,,,0.00,,2013-03-24 07:32:00,
2013-03-24 03:42:00,31.0,23.0,29.69,NW,304,6.0,18.0,73,0.00,,,0.00,,2013-03-24 07:42:00,
2013-03-24 03:52:00,31.0,23.0,29.69,WNW,295,7.0,16.0,73,0.00,,,0.00,,2013-03-24 07:52:00,
2013-03-24 04:03:00,31.0,23.0,29.68,NW,310,10.0,18.0,73,0.00,,,0.00,,2013-03-24 08:03:00,
2013-03-24 04:12:00,31.0,23.0,29.68,NW,310,10.0,18.0,73,0.00,,,0.00,,2013-03-24 08:12:00,
2013-03-24 04:22:00,31.0,23.0,29.68,WNW,299,10.0,26.0,73,0.00,,,0.00,,2013-03-24 08:22:00,
2013-03-24 04:32:00,31.0,23.0,29.69,NW,314,11.0,20.0,73,0.00,,,0.00,,2013-03-24 08:32:00,
2013-03-24 04:42:00,31.0,23.0,29.69,NW,314,11.0,20.0,73,0.00,,,0.00,,2013-03-24 08:42:00,
2013-03-24 04:52:00,31.0,23.0,29.69,WNW,298,11.0,23.0,73,0.00,,,0.00,,2013-03-24 08:52:00,
2013-03-24 05:02:00,31.0,23.0,29.69,WNW,288,9.0,19.0,73,0.00,,,0.00,,2013-03-24 09:02:00,
2013-03-24 05:12:00,31.0,23.0,29.69,WNW,288,9.0,19.0,73,0.00,,,0.00,,2013-03-24 09:12:00,
2013-03-24 05:22:00,31.0,24.0,29.69,NW,306,8.0,17.0,74,0.00,,,0.00,,2013-03-24 09:22:00,
2013-03-24 05:33:00,31.0,24.0,29.70,WNW,292,10.0,22.0,74,0.00,,,0.00,,2013-03-24 09:33:00,
2013-03-24 05:42:00,31.0,24.0,29.70,WNW,292,10.0,22.0,74,0.00,,,0.00,,2013-03-24 09:42:00,
2013-03-24 05:52:00,31.0,24.0,29.70,WNW,292,10.0,22.0,74,0.00,,,0.00,,2013-03-24 09:52:00,
2013-03-24 06:03:00,31.0,24.0,29.70,NW,313,10.0,20.0,74,0.00,,,0.00,,2013-03-24 10:03:00,
2013-03-24 06:12:00,31.0,24.0,29.70,NW,313,10.0,20.0,74,0.00,,,0.00,,2013-03-24 10:12:00,
2013-03-24 06:23:00,31.0,24.0,29.70,NW,313,10.0,20.0,74,0.00,,,0.00,,2013-03-24 10:23:00,
2013-03-24 06:33:00,32.0,25.0,29.71,NNW,334,9.0,20.0,74,0.00,,,0.00,,2013-03-24 10:33:00,
2013-03-24 06:42:00,32.0,25.0,29.71,NNW,334,9.0,20.0,74,0.00,,,0.00,,2013-03-24 10:42:00,
2013-03-24 06:53:00,32.0,24.0,29.71,NW,310,10.0,23.0,73,0.00,,,0.00,,2013-03-24 10:53:00,
2013-03-24 07:03:00,31.0,24.0,29.71,NW,314,9.0,17.0,74,0.00,,,0.00,,2013-03-24 11:03:00,
2013-03-24 07:12:00,31.0,24.0,29.71,NW,314,9.0,17.0,74,0.00,,,0.00,,2013-03-24 11:12:00,
2013-03-24 07:22:00,31.0,24.0,29.72,NNW,335,7.0,15.0,74,0.00,,,0.00,,2013-03-24 11:22:00,
2013-03-24 07:33:00,31.0,24.0,29.72,NNW,332,8.0,15.0,74,0.00,,,0.00,,2013-03-24 11:33:00,
2013-03-24 07:42:00,31.0,24.0,29.72,NNW,332,8.0,15.0,74,0.00,,,0.00,,2013-03-24 11:42:00,
2013-03-24 07:52:00,31.0,24.0,29.73,North,359,8.0,21.0,74,0.00,,,0.00,,2013-03-24 11:52:00,
2013-03-24 08:03:00,32.0,24.0,29.75,NW,308,8.0,17.0,73,0.00,,,0.00,,2013-03-24 12:03:00,
2013-03-24 08:12:00,32.0,24.0,29.75,NW,308,8.0,17.0,73,0.00,,,0.00,,2013-03-24 12:12:00,
2013-03-24 08:22:00,32.0,24.0,29.76,NNW,330,7.0,15.0,72,0.00,,,0.00,,2013-03-24 12:22:00,
2013-03-24 08:32:00,33.0,24.0,29.76,NW,312,8.0,19.0,70,0.00,,,0.00,,2013-03-24 12:32:00,
2013-03-24 08:42:00,33.0,24.0,29.76,NW,312,8.0,19.0,70,0.00,,,0.00,,2013-03-24 12:42:00,
2013-03-24 08:52:00,33.0,24.0,29.77,NW,318,8.0,15.0,70,0.00,,,0.00,,2013-03-24 12:52:00,
2013-03-24 09:02:00,34.0,25.0,29.78,West,271,6.0,20.0,69,0.00,,,0.00,,2013-03-24 13:02:00,
2013-03-24 09:13:00,34.0,25.0,29.78,West,271,6.0,20.0,69,0.00,,,0.00,,2013-03-24 13:13:00,
2013-03-24 09:22:00,34.0,25.0,29.78,NW,311,9.0,21.0,69,0.00,,,0.00,,2013-03-24 13:22:00,
2013-03-24 09:32:00,34.0,25.0,29.79,WNW,291,8.0,21.0,68,0.00,,,0.00,,2013-03-24 13:32:00,
2013-03-24 09:42:00,34.0,25.0,29.79,WNW,291,8.0,21.0,68,0.00,,,0.00,,2013-03-24 13:42:00,
2013-03-24 09:52:00,35.0,26.0,29.80,NW,305,4.0,19.0,68,0.00,,,0.00,,2013-03-24 13:52:00,
2013-03-24 10:02:00,36.0,25.0,29.80,WNW,299,7.0,18.0,65,0.00,,,0.00,,2013-03-24 14:02:00,
2013-03-24 10:12:00,36.0,25.0,29.80,WNW,299,7.0,18.0,65,0.00,,,0.00,,2013-03-24 14:12:00,
2013-03-24 10:22:00,36.0,24.0,29.80,WNW,295,11.0,19.0,62,0.00,,,0.00,,2013-03-24 14:22:00,
2013-03-24 10:33:00,37.0,25.0,29.80,WNW,299,9.0,21.0,62,0.00,,,0.00,,2013-03-24 14:33:00,
2013-03-24 10:42:00,37.0,25.0,29.80,WNW,299,9.0,21.0,62,0.00,,,0.00,,2013-03-24 14:42:00,
2013-03-24 10:52:00,35.0,25.0,29.80,NW,314,9.0,18.0,66,0.00,,,0.00,,2013-03-24 14:52:00,
2013-03-24 11:02:00,35.0,25.0,29.80,NNW,329,10.0,20.0,67,0.00,,,0.00,,2013-03-24 15:02:00,
2013-03-24 11:12:00,35.0,25.0,29.80,NNW,329,10.0,20.0,67,0.00,,,0.00,,2013-03-24 15:12:00,
2013-03-24 11:22:00,35.0,26.0,29.79,NW,307,10.0,19.0,68,0.00,,,0.00,,2013-03-24 15:22:00,
2013-03-24 11:33:00,36.0,26.0,29.79,WNW,295,7.0,16.0,68,0.00,,,0.00,,2013-03-24 15:33:00,
2013-03-24 11:43:00,36.0,26.0,29.79,WNW,295,7.0,16.0,68,0.00,,,0.00,,2013-03-24 15:43:00,
2013-03-24 11:53:00,36.0,26.0,29.79,WNW,299,7.0,15.0,68,0.00,,,0.00,,2013-03-24 15:53:00,
2013-03-24 12:03:00,36.0,26.0,29.78,WNW,289,9.0,20.0,66,0.00,,,0.00,,2013-03-24 16:03:00,
2013-03-24 12:13:00,36.0,26.0,29.78,WNW,289,9.0,20.0,66,0.00,,,0.00,,2013-03-24 16:13:00,
2013-03-24 12:23:00,37.0,26.0,29.78,NW,304,11.0,28.0,63,0.00,,,0.00,,2013-03-24 16:23:00,
2013-03-24 12:33:00,38.0,25.0,29.78,NW,320,10.0,19.0,60,0.00,,,0.00,,2013-03-24 16:33:00,
2013-03-24 12:42:00,38.0,25.0,29.78,NW,320,10.0,19.0,60,0.00,,,0.00,,2013-03-24 16:42:00,
2013-03-24 12:52:00,38.0,24.0,29.78,NNW,330,9.0,18.0,57,0.00,,,0.00,,2013-03-24 16:52:00,
2013-03-24 13:03:00,39.0,24.0,29.78,NW,322,8.0,20.0,55,0.00,,,0.00,,2013-03-24 17:03:00,
2013-03-24 13:12:00,39.0,24.0,29.78,NW,322,8.0,20.0,55,0.00,,,0.00,,2013-03-24 17:12:00,
2013-03-24 13:23:00,39.0,23.0,29.78,NW,323,13.0,21.0,53,0.00,,,0.00,,2013-03-24 17:23:00,
2013-03-24 13:33:00,39.0,24.0,29.78,WNW,283,12.0,24.0,54,0.00,,,0.00,,2013-03-24 17:33:00,
2013-03-24 13:42:00,39.0,24.0,29.78,WNW,283,12.0,24.0,54,0.00,,,0.00,,2013-03-24 17:42:00,
2013-03-24 13:52:00,39.0,23.0,29.78,NW,319,10.0,22.0,53,0.00,,,0.00,,2013-03-24 17:52:00,
2013-03-24 14:03:00,40.0,24.0,29.78,NW,316,8.0,19.0,52,0.00,,,0.00,,2013-03-24 18:03:00,
2013-03-24 14:12:00,40.0,24.0,29.78,NW,316,8.0,19.0,52,0.00,,,0.00,,2013-03-24 18:12:00,
2013-03-24 14:22:00,40.0,24.0,29.78,North,8,9.0,18.0,52,0.00,,,0.00,,2013-03-24 18:22:00,
2013-03-24 14:33:00,39.0,24.0,29.78,NW,306,8.0,18.0,54,0.00,,,0.00,,2013-03-24 18:33:00,
2013-03-24 14:43:00,39.0,24.0,29.78,NW,306,8.0,18.0,54,0.00,,,0.00,,2013-03-24 18:43:00,
2013-03-24 14:52:00,40.0,24.0,29.78,North,354,8.0,19.0,53,0.00,,,0.00,,2013-03-24 18:52:00,
2013-03-24 15:03:00,40.0,24.0,29.78,WSW,258,8.0,16.0,53,0.00,,,0.00,,2013-03-24 19:03:00,
2013-03-24 15:12:00,40.0,24.0,29.78,WSW,258,8.0,16.0,53,0.00,,,0.00,,2013-03-24 19:12:00,
2013-03-24 15:22:00,40.0,25.0,29.79,NNW,334,4.0,18.0,54,0.00,,,0.00,,2013-03-24 19:22:00,
2013-03-24 15:32:00,40.0,24.0,29.79,NNW,329,6.0,20.0,53,0.00,,,0.00,,2013-03-24 19:32:00,
2013-03-24 15:43:00,40.0,24.0,29.79,NNW,329,6.0,20.0,53,0.00,,,0.00,,2013-03-24 19:43:00,
2013-03-24 15:52:00,40.0,24.0,29.79,West,279,7.0,19.0,52,0.00,,,0.00,,2013-03-24 19:52:00,
2013-03-24 16:03:00,39.0,24.0,29.79,NW,312,4.0,16.0,55,0.00,,,0.00,,2013-03-24 20:03:00,
2013-03-24 16:12:00,39.0,24.0,29.79,NW,312,4.0,16.0,55,0.00,,,0.00,,2013-03-24 20:12:00,
2013-03-24 16:22:00,40.0,25.0,29.79,WNW,303,6.0,13.0,54,0.00,,,0.00,,2013-03-24 20:22:00,
2013-03-24 16:32:00,40.0,24.0,29.79,NW,318,7.0,19.0,53,0.00,,,0.00,,2013-03-24 20:32:00,
2013-03-24 16:42:00,40.0,24.0,29.79,NW,318,7.0,19.0,53,0.00,,,0.00,,2013-03-24 20:42:00,
2013-03-24 16:53:00,40.0,23.0,29.78,WNW,289,8.0,15.0,51,0.00,,,0.00,,2013-03-24 20:53:00,
2013-03-24 17:03:00,40.0,24.0,29.78,NNW,343,7.0,14.0,53,0.00,,,0.00,,2013-03-24 21:03:00,
2013-03-24 17:12:00,40.0,24.0,29.78,NNW,343,7.0,14.0,53,0.00,,,0.00,,2013-03-24 21:12:00,
2013-03-24 17:22:00,39.0,23.0,29.79,WNW,303,6.0,15.0,53,0.00,,,0.00,,2013-03-24 21:22:00,
2013-03-24 17:33:00,39.0,23.0,29.79,WNW,303,6.0,15.0,53,0.00,,,0.00,,2013-03-24 21:33:00,
2013-03-24 17:43:00,39.0,23.0,29.79,WNW,303,6.0,15.0,53,0.00,,,0.00,,2013-03-24 21:43:00,
2013-03-24 17:53:00,39.0,24.0,29.79,WNW,297,3.0,11.0,55,0.00,,,0.00,,2013-03-24 21:53:00,
2013-03-24 18:03:00,39.0,23.0,29.79,NW,321,8.0,14.0,53,0.00,,,0.00,,2013-03-24 22:03:00,
2013-03-24 18:13:00,39.0,23.0,29.79,NW,321,8.0,14.0,53,0.00,,,0.00,,2013-03-24 22:13:00,
2013-03-24 18:23:00,40.0,24.0,29.79,WNW,286,3.0,11.0,53,0.00,,,0.00,,2013-03-24 22:23:00,
2013-03-24 18:33:00,40.0,24.0,29.79,NNW,337,7.0,15.0,52,0.00,,,0.00,,2013-03-24 22:33:00,
2013-03-24 18:43:00,40.0,24.0,29.79,NNW,337,7.0,15.0,52,0.00,,,0.00,,2013-03-24 22:43:00,
2013-03-24 18:52:00,39.0,24.0,29.80,North,4,7.0,14.0,54,0.00,,,0.00,,2013-03-24 22:52:00,
2013-03-24 19:03:00,39.0,24.0,29.80,North,4,7.0,14.0,54,0.00,,,0.00,,2013-03-24 23:03:00,
2013-03-24 19:12:00,39.0,24.0,29.80,North,4,7.0,14.0,54,0.00,,,0.00,,2013-03-24 23:12:00,
2013-03-24 19:22:00,38.0,24.0,29.80,NW,320,3.0,8.0,57,0.00,,,0.00,,2013-03-24 23:22:00,
2013-03-24 19:32:00,37.0,24.0,29.80,North,8,5.0,10.0,58,0.00,,,0.00,,2013-03-24 23:32:00,
2013-03-24 19:42:00,37.0,24.0,29.80,North,8,5.0,10.0,58,0.00,,,0.00,,2013-03-24 23:42:00,
2013-03-24 19:52:00,37.0,24.0,29.80,NW,314,4.0,10.0,59,0.00,,,0.00,,2013-03-24 23:52:00,
2013-03-24 20:02:00,36.0,24.0,29.81,NW,310,3.0,6.0,61,0.00,,,0.00,,2013-03-25 00:02:00,
2013-03-24 20:12:00,36.0,24.0,29.81,NW,310,3.0,6.0,61,0.00,,,0.00,,2013-03-25 00:12:00,
2013-03-24 20:22:00,35.0,23.0,29.81,NW,313,4.0,7.0,62,0.00,,,0.00,,2013-03-25 00:22:00,
2013-03-24 20:32:00,35.0,24.0,29.82,NW,318,3.0,7.0,63,0.00,,,0.00,,2013-03-25 00:32:00,
2013-03-24 20:42:00,35.0,24.0,29.82,NW,318,3.0,7.0,63,0.00,,,0.00,,2013-03-25 00:42:00,
2013-03-24 20:52:00,35.0,24.0,29.82,NNW,327,4.0,8.0,64,0.00,,,0.00,,2013-03-25 00:52:00,
2013-03-24 21:02:00,35.0,25.0,29.82,NW,314,5.0,10.0,66,0.00,,,0.00,,2013-03-25 01:02:00,
2013-03-24 21:12:00,35.0,25.0,29.82,NW,314,5.0,10.0,66,0.00,,,0.00,,2013-03-25 01:12:00,
2013-03-24 21:22:00,35.0,25.0,29.82,NW,315,5.0,12.0,67,0.00,,,0.00,,2013-03-25 01:22:00,
2013-03-24 21:32:00,35.0,26.0,29.82,NW,312,6.0,11.0,69,0.00,,,0.00,,2013-03-25 01:32:00,
2013-03-24 21:42:00,35.0,26.0,29.82,NW,312,6.0,11.0,69,0.00,,,0.00,,2013-03-25 01:42:00,
2013-03-24 21:52:00,34.0,25.0,29.81,NNW,343,5.0,11.0,70,0.00,,,0.00,,2013-03-25 01:52:00,
2013-03-24 22:02:00,34.0,26.0,29.81,NW,323,6.0,10.0,71,0.00,,,0.00,,2013-03-25 02:02:00,
2013-03-24 22:12:00,34.0,26.0,29.81,NW,323,6.0,10.0,71,0.00,,,0.00,,2013-03-25 02:12:00,
2013-03-24 22:22:00,34.0,26.0,29.80,NW,308,5.0,10.0,72,0.00,,,0.00,,2013-03-25 02:22:00,
2013-03-24 22:33:00,33.0,26.0,29.80,NW,318,5.0,9.0,74,0.00,,,0.00,,2013-03-25 02:33:00,
2013-03-24 22:42:00,33.0,26.0,29.80,NW,318,5.0,9.0,74,0.00,,,0.00,,2013-03-25 02:42:00,
2013-03-24 22:52:00,33.0,26.0,29.81,NW,322,6.0,11.0,75,0.00,,,0.00,,2013-03-25 02:52:00,
2013-03-24 23:03:00,33.0,26.0,29.81,NNW,336,5.0,11.0,74,0.00,,,0.00,,2013-03-25 03:03:00,
2013-03-24 23:13:00,33.0,26.0,29.81,NNW,336,5.0,11.0,74,0.00,,,0.00,,2013-03-25 03:13:00,
2013-03-24 23:23:00,33.0,26.0,29.82,NW,320,4.0,11.0,75,0.00,,,0.00,,2013-03-25 03:23:00,
2013-03-24 23:34:00,33.0,26.0,29.82,NW,320,5.0,9.0,76,0.00,,,0.00,,2013-03-25 03:34:00,
2013-03-24 23:43:00,33.0,26.0,29.82,NW,320,5.0,9.0,76,0.00,,,0.00,,2013-03-25 03:43:00,
2013-03-24 23:53:00,33.0,26.0,29.82,NNW,345,4.0,8.0,76,0.00,,,0.00,,2013-03-25 03:53:00,